Flag for U.S.A. Weather past 2 weeks in Livonia, Michigan, U.S.A.

Now
85 °F

Scattered clouds.


Feels Like: 83 °F
Forecast: 64 / 82 °F
Wind: 21 mph from West

Location: Detroit Metropolitan Wayne County Airport

Current Time: Aug 1, 2015 at 4:46:55 PM

Latest Report: Aug 1, 2015 at 3:53 PM


Visibility: 10 mi

Pressure: 29.88 "Hg

Humidity: 31%

Dew point: 51 °F

Location of LivoniaLocation

Historic Weather in Livonia — Graph

°F

Livonia temperature yesterday

Maximum temperature yesterday: 87 °F (at 1:53 PM)
Minimum temperature yesterday: 66 °F (at 5:53 AM)
Average temperature yesterday: 77 °F

Past Weeks' High & Low Weather Summary

 TemperatureHumidityPressure
High90 °F (Jul 19, 1:53 PM)93% (Jul 26, 3:53 AM)30.05 "Hg (Jul 26, 3:53 AM)
Low59 °F (Jul 22, 5:53 AM)30% (Jul 31, 6:53 PM)29.69 "Hg (Jul 21, 4:53 AM)
Average77 °F62%29.91 "Hg
* Reported Jul 17 2:53 PM — Aug 1 2:53 PM, Livonia, Weather by CustomWeather, © 2015

Note: Actual official high and low records may vary slightly from our data, if they occured in-between our weather recording intervals... More about our weather records

Advertising

Livonia weather history for previous 24 hours

 ConditionsComfort  
Time TempWeatherWind HumidityBarometerVisibility
2:53 PM
Sat, Aug 1
83 °FScattered clouds.14 mph33%29.89 "Hg10 mi
1:53 PM84 °FPartly sunny.13 mph35%29.90 "Hg10 mi
12:53 PM82 °FScattered clouds.13 mph38%29.91 "Hg10 mi
11:53 AM80 °FPassing clouds.8 mph39%29.92 "Hg10 mi
10:53 AM78 °FPassing clouds.10 mph48%29.92 "Hg10 mi
9:53 AM75 °FPassing clouds.7 mph55%29.93 "Hg10 mi
8:53 AM70 °FPassing clouds.6 mph66%29.92 "Hg10 mi
7:53 AM66 °FPassing clouds.6 mph70%29.91 "Hg10 mi
6:53 AM63 °FPassing clouds.6 mph75%29.91 "Hg10 mi
5:53 AM63 °FClear.8 mph73%29.90 "Hg10 mi
4:53 AM64 °FPassing clouds.7 mph70%29.89 "Hg10 mi
3:53 AM64 °FPassing clouds.6 mph68%29.89 "Hg10 mi
2:53 AM65 °FPassing clouds.3 mph66%29.89 "Hg10 mi
1:53 AM67 °FPassing clouds.7 mph61%29.89 "Hg10 mi
12:53 AM69 °FClear.9 mph55%29.89 "Hg10 mi
11:53 PM
Fri, Jul 31
72 °FClear.7 mph48%29.88 "Hg10 mi
10:53 PM73 °FClear.9 mph44%29.88 "Hg10 mi
9:53 PM75 °FPassing clouds.9 mph40%29.86 "Hg10 mi
8:53 PM77 °FPassing clouds.10 mph36%29.85 "Hg10 mi
7:53 PM81 °FPassing clouds.17 mph32%29.83 "Hg10 mi
6:53 PM84 °FScattered clouds.21 mph30%29.83 "Hg10 mi
5:53 PM86 °FScattered clouds.18 mph33%29.83 "Hg10 mi
4:53 PM86 °FBroken clouds.16 mph35%29.83 "Hg10 mi
Weather by CustomWeather, © 2015

See weather overviewHow to use our weather pages